Weather in Siminchi

Russia / Sverdlovsk Oblast     56°25′53″N   58°19′41″E
temp.,
°C
wind,
m/s
gust,
m/s
humid.,
%
clouds,
%
prec.,
mm/h
press.,
hPa
HPBL,
m
20 april, tue
tue2023:000e11450 0.0 103414
02:000s11450 0.0 103413
05:00−1w114831 0.0 103512
08:00+1wnw34415 0.0 1035250
11:00+4nw34365 0.0 10351136
14:00+7nw45325 0.0 10331427
17:00+7nw56330 0.0 10321465
20:00+5nw33470 0.0 103150
21 april, wed
wed2123:00+3nw11530 0.0 103210
02:00+1nw11600 0.0 103310
05:00+1nne11630 0.0 103310
08:00+3w12550 0.0 1034154
11:00+7e11430 0.0 1033576
14:00+9s213646 0.0 1032970
17:00+11se34346 0.0 10311006
20:00+9s234699 0.0 103132
22 april, thu
thu2223:00+6se3453100 0.0 103163
02:00+5se3363100 0.0 103140
05:00+4se3265100 0.0 103222
08:00+5s2961100 0.0 1032351
11:00+8s5947100 0.0 1032860
14:00+8ssw6851100 0.0 1032853
17:00+10ssw6104198 0.0 10321535
20:00+8wsw3656100 0.0 1032204
23 april, fri
fri2323:00+6ssw2368100 0.0 103263
02:00+5ese2173100 0.0 103115
05:00+5s4977100 0.3 1031560
08:00+4sse4894100 1.3 1031672
11:00+5s4892100 1.5 1030940
14:00+6s3488100 0.1 1030581
17:00+6wsw2579100 0.2 1030465
20:00+6ne2283100 0.0 102915
24 april, sat
sat2423:00+4ne2388100 0.0 102833
02:00+4ne2289100 0.0 102628
05:00+5e2288100 0.0 102420
08:00+6se2386100 0.0 1023166
11:00+6se4894100 0.5 1022444
14:00+7se5787100 0.1 1020911
17:00+8ese5873100 0.5 1019782
20:00+5se61087100 1.7 1018770